sat.trackr.live / text

‹ back to catalog

HULIANWANG DIGUI-113

NORAD 66923 · 2025-285J

PAYLOAD ACTIVE UNKNOWN

§ Identity

Operator
Country
PRC
Launch date
2025-12-06
Launch site
WSC
Launch vehicle
Mass (kg)
RCS (m²)

External: N2YO · Heavens-Above · Gunter

§ Orbital elements

Epoch: 2026-05-25T04:18:22.078944Z

Period
108.33 min
Inclination
50.0089°
Eccentricity
0.0001086
Mean motion
13.29323782 rev/d
Perigee alt
1,148.5 km
Apogee alt
1,150.1 km
Semi-major
7,527.5 km
B*
5.6697e-5
RAAN
228.2133°
Arg perigee
211.6427°
Mean anomaly
148.4380°
Rev number
2,300

§ Raw data

HULIANWANG DIGUI-1131 66923U 25285J   26145.17942221 -.00000098  00000+0  56697-4 0  99982 66923  50.0089 228.2133 0001086 211.6427 148.4380 13.29323782 23002

JSON: /api/v1/satellites/66923 · /tle

For live sub-satellite position, see the globe view (requires WebGL).

§ Visibility from observer

Set your observer location to see the next 7 days of passes ≥ 10°. The values pass through the URL so the page stays shareable.

No JS? Fill the form by hand. The geolocation button needs JavaScript.